GFSFLT2_925_spd_078.txt.gz
Wind_Speed
9 11 11 14 13 13 13 11 10 6 4 6 3 4 5 7 5 4 3 5 6 8 11 6 10 16 27
8 8 10 12 12 11 9 9 8 6 5 3 2 2 3 4 4 5 3 3 3 5 12 13 17 11 12
7 8 9 12 13 12 10 9 10 8 6 5 3 3 2 1 2 4 4 4 4 1 2 10 16 16 16
7 6 8 8 13 11 10 11 9 9 9 7 6 5 4 4 3 2 2 3 5 3 2 1 3 10 14
7 6 8 7 13 12 12 10 9 9 7 6 7 6 7 6 4 3 3 3 3 2 3 5 5 4 5
11 8 12 11 12 13 11 6 5 7 8 7 6 5 5 4 4 3 3 3 3 4 4 4 5 6 7
11 13 11 13 14 13 11 7 6 4 7 6 5 5 5 5 4 1 2 3 4 3 3 4 4 4 5
10 10 10 9 11 8 7 7 5 7 8 5 5 4 4 4 5 4 4 3 3 4 4 5 5 6 6
9 10 10 8 11 10 9 10 5 6 9 4 5 5 4 5 7 7 6 4 4 5 5 4 4 4 3
5 5 6 9 11 9 9 10 5 5 8 8 7 6 4 6 7 8 8 9 10 7 5 4 3 2 3
6 6 6 6 5 7 7 8 6 2 6 9 7 8 2 3 7 10 10 9 9 8 8 7 8 6 4
8 8 8 7 6 7 7 7 7 5 7 12 4 7 5 4 4 8 10 11 12 10 10 11 11 11 10
10 9 8 7 9 8 7 7 6 6 8 9 6 8 8 3 3 5 5 8 12 12 11 11 11 10 10
10 9 9 11 9 10 7 7 6 5 7 8 9 8 7 8 7 5 7 4 7 10 10 9 9 10 12
12 11 10 10 10 11 9 8 6 6 6 7 8 8 9 8 6 9 9 9 10 11 12 13 12 13 13
13 14 13 13 11 11 10 9 9 8 6 6 6 5 5 9 15 11 8 9 8 10 11 10 11 11 11
18 17 16 14 14 12 11 11 10 9 9 9 9 8 6 4 2 9 9 7 7 7 8 10 11 10 12

GFSFLT2_925_spd_084.txt.gz
Wind_Speed
5 8 8 9 10 10 11 12 12 11 9 7 7 6 6 5 2 5 6 7 9 8 11 12 12 10 16
10 11 9 11 12 11 11 11 11 10 8 6 4 3 6 3 4 5 6 5 7 7 8 11 7 7 13
9 9 11 12 11 12 12 11 10 9 10 8 5 2 3 4 4 6 6 6 6 5 4 9 15 19 5
11 10 10 10 13 13 12 12 10 10 11 9 7 6 5 6 5 4 4 4 5 5 5 3 8 16 26
12 9 10 10 12 9 11 10 12 14 12 12 9 9 9 7 8 6 4 4 3 2 4 2 2 5 11
13 10 16 12 12 10 10 6 5 13 13 11 10 8 7 7 8 6 4 4 3 3 1 2 1 1 3
17 17 15 13 14 13 14 11 4 3 13 8 12 8 8 8 7 4 2 2 3 4 4 3 3 3 4
13 14 15 13 14 13 13 10 6 9 12 5 10 7 8 7 5 4 3 3 4 5 6 6 6 8 7
12 12 12 12 11 12 13 16 5 7 11 8 7 8 7 6 7 6 5 4 5 7 6 7 7 7 7
12 13 14 12 12 14 17 20 7 4 13 12 10 9 4 8 10 9 8 6 7 6 5 6 7 7 6
11 11 12 14 14 16 15 18 17 7 10 16 12 12 3 5 10 10 11 12 10 7 5 5 5 5 5
17 15 14 12 14 14 17 19 17 15 11 17 8 14 9 6 5 11 13 12 11 10 9 7 6 6 6
20 18 16 17 14 15 16 11 11 12 12 15 12 14 14 7 6 8 9 13 14 12 12 10 8 9 9
21 18 19 20 18 17 16 15 13 13 14 14 14 10 15 12 9 9 10 5 10 13 12 12 10 9 9
23 22 23 20 20 19 17 18 12 14 15 15 13 13 12 12 11 12 11 11 9 7 10 10 10 9 10
25 25 26 23 23 21 19 21 18 15 17 17 15 11 8 10 14 10 13 13 11 11 11 11 13 11 11
26 26 26 24 23 24 24 22 21 18 17 16 17 13 3 3 3 14 16 13 13 13 13 12 8 5 4

GFSFLT2_925_spd_087.txt.gz
Wind_Speed
6 10 12 12 10 10 9 11 13 14 12 12 10 10 9 8 7 4 5 6 7 8 8 11 16 16 15
10 11 12 13 12 12 11 14 14 14 12 12 9 8 7 7 7 6 7 7 8 8 9 10 16 10 11
11 10 12 12 12 13 12 13 13 13 11 10 9 8 7 7 6 5 8 8 8 8 9 9 13 12 3
12 11 12 11 12 12 13 15 13 11 14 13 11 9 7 8 6 6 7 8 7 7 8 6 9 16 19
11 9 10 10 12 12 15 14 15 15 16 16 13 10 9 11 9 9 8 7 6 5 5 5 4 7 18
14 11 18 18 17 15 13 10 5 16 18 16 13 12 9 9 10 9 6 6 6 5 2 2 2 2 5
18 18 18 19 17 15 16 13 8 6 18 7 11 11 9 8 9 7 5 3 4 3 2 1 2 2 2
17 17 17 15 16 19 18 15 8 7 12 4 10 10 9 9 7 6 4 4 3 3 3 3 5 5 5
17 16 17 16 15 16 15 18 5 8 16 7 8 9 10 9 7 6 5 5 5 5 4 5 5 6 8
18 17 16 16 17 18 19 21 8 5 13 10 11 9 5 8 11 11 9 6 7 6 5 6 5 4 7
17 16 18 18 18 19 18 21 19 9 6 17 13 13 4 4 11 12 11 12 11 7 6 5 5 5 6
21 19 19 19 20 18 18 19 18 16 14 17 7 16 10 5 4 13 15 14 12 11 9 7 7 7 6
23 22 21 18 18 18 17 16 15 15 15 16 17 13 14 6 6 10 12 16 15 14 12 10 8 9 8
24 22 20 21 21 20 18 17 16 16 17 17 16 14 18 14 9 11 11 4 17 17 13 12 12 11 10
25 25 25 26 25 22 20 21 14 17 17 16 15 15 14 15 12 11 13 11 6 12 14 13 13 11 11
26 27 27 27 27 25 22 23 22 16 18 19 19 13 10 12 16 11 15 14 12 12 11 10 11 11 12
27 28 28 30 24 26 25 24 23 18 18 20 21 15 3 3 3 18 15 16 15 15 14 13 8 4 6

GFSFLT2_925_spd_090.txt.gz
Wind_Speed
12 15 18 19 18 15 14 12 12 13 14 16 15 13 12 11 9 11 11 9 10 10 11 14 15 19 21
10 14 13 17 15 15 14 13 13 14 15 13 13 10 10 9 8 8 9 8 10 11 13 14 15 21 24
9 14 13 15 14 14 13 12 13 13 13 12 12 11 11 9 7 7 8 8 10 11 13 13 13 20 17
14 12 14 13 16 14 12 13 13 14 13 16 14 12 9 8 8 8 8 8 10 10 11 11 12 15 14
12 10 12 9 15 13 16 14 14 16 16 16 17 13 11 11 11 10 9 8 8 8 8 7 9 10 16
13 11 18 17 16 16 14 10 4 15 18 19 17 16 14 13 12 10 9 8 6 5 4 6 5 6 7
23 24 21 23 21 18 18 15 10 6 16 11 15 17 15 13 11 9 7 6 4 3 2 1 2 3 2
28 23 21 18 22 22 22 18 11 10 12 7 12 14 14 12 10 8 5 4 2 1 3 4 3 6 5
20 19 17 17 18 20 18 17 5 9 18 6 9 11 11 11 10 9 6 5 5 4 4 6 5 8 8
20 19 18 19 20 23 24 21 9 5 19 16 12 9 4 10 12 12 10 8 8 6 5 6 6 6 8
21 20 20 19 20 22 22 25 23 6 14 23 14 14 5 4 11 15 12 12 11 8 7 6 6 6 7
22 22 21 21 22 22 21 21 22 18 14 15 9 18 12 7 5 15 15 14 13 11 9 8 8 7 7
25 25 25 21 21 21 20 20 20 18 15 18 18 15 17 9 7 11 15 16 18 16 12 10 8 8 8
24 27 23 21 23 24 22 20 18 16 18 20 19 18 20 15 9 12 14 7 22 19 14 13 12 11 10
25 26 26 25 26 25 22 22 13 18 18 18 17 17 15 17 14 10 16 13 7 19 17 16 15 14 12
26 27 24 27 25 27 23 20 20 17 21 20 19 15 11 14 17 12 14 16 12 12 16 13 12 12 12
27 28 26 25 23 23 24 22 19 20 20 21 24 17 3 4 7 19 16 18 16 15 15 12 6 5 9